Terminal Aerodrome Forecast
Issued by NWS Pittsburgh, PA

Current Version | Previous Version | Text Only | Print | Product List | Glossary Off
Versions: 1 2 3 4 5 6 7 8 9 10 11 12 13 14 15 16 17 18 19 20 21 22 23 24 25 26 27

072
FTUS41 KPBZ 060255 AAA
TAFPIT
TAF AMD
KPIT 060255Z 0603/0706 VRB03KT P6SM BKN250
     FM061500 11012G18KT P6SM -RA OVC050
     FM061800 13012G18KT 4SM -RA OVC015
     FM070000 12005KT P6SM OVC008=

USA.gov is the U.S. government's official web portal to all federal, state and local government web resources and services.